Date_and_time,latitude,longitude,wind_speed,RelWindDirFrom,WindDirFrom,air_pressure,air_temperature,relative_humidity,Temp,platform_speed_wrt_ground,air_pressure_at_mean_sea_level,platform_orientation
2019-09-18 23:40,52.608725,-97.4716366666667,31.3,35.4,323,973.86,15.6,100,16.19,8.4,999.80,329.9
2019-09-18 23:50,52.6289533333333,-97.4899016666667,31.2,36.1,324,974.10,15.7,100,16.17,8.3,1000.03,329.9
2019-09-19 00:00,52.6493,-97.5061066666667,30.7,37.1,323,974.50,15.7,100,16.23,8.1,1000.44,332.5
2019-09-19 00:10,52.66923,-97.5229916666667,32.6,37.5,324,974.49,15.3,100,16.23,8.1,1000.45,332.5
2019-09-19 00:20,52.6889166666667,-97.5398716666667,32.9,39.0,324,974.66,15.3,100,16.23,8.0,1000.62,332.5
2019-09-19 00:30,52.7078566666667,-97.5552483333333,33.6,39.9,324,974.71,15.0,100,16.21,7.6,1000.69,332.5
2019-09-19 00:40,52.7266716666667,-97.5718416666667,33.7,38.7,325,974.97,14.8,100,16.20,7.7,1000.98,332.5
2019-09-19 00:50,52.7451383333333,-97.5874766666667,33.0,39.7,325,975.20,14.7,100,16.18,7.5,1001.23,332.5
2019-09-19 01:00,52.7622366666667,-97.6006533333333,32.1,39.8,326,975.64,14.6,100,16.14,6.8,1001.69,334.1
2019-09-19 01:10,52.7831466666667,-97.608305,31.5,37.4,341,976.15,14.6,100,16.09,7.7,1002.22,334.1
2019-09-19 01:20,52.8044216666667,-97.6255366666667,30.8,38.7,331,976.72,14.4,100,16.10,8.5,1002.82,334.1
2019-09-19 01:30,52.8108966666667,-97.6285766666667,20.2,31.8,336,978.28,14.4,100,16.03,2.4,1004.42,334.1
2019-09-19 01:40,52.810825,-97.6287816666667,18.5,26.3,335,978.72,14.4,100,16.06,0.1,1004.86,334.1
2019-09-19 01:50,52.8108133333333,-97.6288766666667,19.4,25.7,338,978.77,14.3,100,16.06,0.0,1004.92,334.1
2019-09-19 02:00,52.8108366666667,-97.6286733333333,19.8,27.9,338,978.96,14.3,100,16.05,0.0,1005.13,334.8
2019-09-19 02:10,52.8108266666667,-97.62876,20.3,31.2,335,979.18,14.2,100,16.05,0.0,1005.37,334.8
2019-09-19 02:20,52.810825,-97.62883,20.9,32.4,340,979.36,14.1,99,16.05,0.0,1005.57,334.8
2019-09-19 02:30,52.81081,-97.6287816666667,20.5,30.5,343,979.50,13.9,99,16.04,0.0,1005.73,334.8
2019-09-19 02:40,52.8107966666667,-97.6288283333333,21.7,28.6,348,979.38,14.1,98,16.02,0.0,1005.61,334.8
2019-09-19 02:50,52.810815,-97.6288233333333,20.3,27.9,346,979.46,14.1,99,16.02,0.0,1005.69,334.8
2019-09-19 03:00,52.81082,-97.6287633333333,21.3,28.9,346,979.42,14.2,96,16.00,0.0,1005.65,335.4
2019-09-19 03:10,52.8107916666667,-97.6289083333333,21.1,28.2,345,979.51,14.4,93,15.98,0.0,1005.74,335.4
2019-09-19 03:20,52.8107366666667,-97.6289733333333,22.9,30.2,350,979.45,14.4,93,15.97,0.0,1005.68,335.4
2019-09-19 03:30,52.8107666666667,-97.62863,20.5,28.9,348,979.91,14.4,96,15.96,0.1,1006.15,335.4
2019-09-19 03:40,52.8107266666667,-97.6287566666667,17.7,24.1,342,980.35,14.2,98,15.96,0.0,1006.62,335.4
2019-09-19 03:50,52.8107383333333,-97.6287833333333,19.2,25.5,339,980.37,14.1,96,15.96,0.0,1006.64,335.4
2019-09-19 04:00,52.8106983333333,-97.6289183333333,19.7,26.6,349,980.53,14.0,95,15.95,0.0,1006.81,340.6
2019-09-19 04:10,52.81069,-97.6288433333333,20.2,28.3,346,980.56,13.9,94,15.93,0.0,1006.85,340.6
2019-09-19 04:20,52.8107216666667,-97.6286416666667,19.1,27.0,345,980.84,13.8,95,15.93,0.0,1007.15,340.6
2019-09-19 04:30,52.8106883333333,-97.628825,18.8,24.6,347,981.10,13.8,96,15.92,0.0,1007.41,340.6
2019-09-19 04:40,52.8107183333333,-97.628815,17.8,25.0,351,981.36,13.8,96,15.91,0.0,1007.68,340.6
2019-09-19 04:50,52.8107083333333,-97.6287166666667,17.9,25.1,349,981.60,13.7,96,15.91,0.0,1007.92,340.6
2019-09-19 05:00,52.8107166666667,-97.62868,17.5,23.9,345,981.94,13.6,96,15.91,0.0,1008.27,360.0
2019-09-19 05:10,52.8106783333333,-97.6288833333333,16.9,23.3,344,982.15,13.6,95,15.91,0.0,1008.49,360.0
2019-09-19 05:20,52.8106883333333,-97.6288016666667,18.9,25.5,3,982.09,13.6,92,15.91,0.0,1008.43,360.0
2019-09-19 05:30,52.8106983333333,-97.6290233333333,17.2,23.6,356,982.38,13.7,94,15.91,0.0,1008.73,360.0
2019-09-19 05:40,52.810705,-97.6290416666667,17.1,22.5,4,982.59,13.5,94,15.91,0.0,1008.96,360.0
2019-09-19 05:50,52.810705,-97.6289333333333,17.1,22.4,4,982.74,13.4,95,15.92,0.0,1009.12,360.0
2019-09-19 06:00,52.8106933333333,-97.6290183333333,17.7,22.3,6,982.77,13.4,96,15.93,0.0,1009.15,230.3
2019-09-19 06:10,52.8107233333333,-97.6289183333333,18.3,22.5,6,982.86,13.2,94,15.93,0.0,1009.26,230.3
2019-09-19 06:20,52.8106983333333,-97.62891,15.8,19.8,10,983.27,13.1,95,15.93,0.0,1009.69,230.3
2019-09-19 06:30,52.8106883333333,-97.6289266666667,16.0,19.3,7,983.59,13.1,96,15.93,0.0,1010.02,230.3
2019-09-19 06:40,52.8106916666667,-97.6288416666667,13.7,18.2,354,983.92,13.0,96,15.93,0.0,1010.36,230.3
2019-09-19 06:50,52.81071,-97.6286683333333,12.1,17.1,346,984.26,12.8,95,15.93,0.0,1010.73,230.3
2019-09-19 07:00,52.810735,-97.6287566666667,11.2,14.9,343,984.44,12.7,93,15.94,0.0,1010.91,68.7
2019-09-19 07:10,52.8107216666667,-97.628695,10.4,14.1,352,984.65,12.8,95,15.94,0.0,1011.13,68.7
2019-09-19 07:20,52.810725,-97.628745,10.8,15.3,348,984.85,12.7,95,15.95,0.0,1011.34,68.7
2019-09-19 07:30,52.8106883333333,-97.6288066666667,10.7,14.8,346,985.01,12.7,93,15.95,0.0,1011.51,68.7
2019-09-19 07:40,52.810715,-97.6288266666667,11.2,16.0,348,985.20,12.7,88,15.94,0.0,1011.71,68.7
2019-09-19 07:50,52.8107333333333,-97.6286383333333,11.0,15.5,345,985.38,12.8,84,15.93,0.0,1011.88,68.7
2019-09-19 08:00,52.810695,-97.6287166666667,11.8,17.1,341,985.43,12.7,84,15.94,0.0,1011.96,229.0
2019-09-19 08:10,52.8107033333333,-97.6287183333333,14.1,18.8,349,985.40,12.7,80,15.95,0.0,1011.93,229.0
2019-09-19 08:20,52.8107283333333,-97.6287866666667,13.3,19.2,346,985.59,12.6,81,15.95,0.0,1012.13,229.0
2019-09-19 08:30,52.8106916666667,-97.6288533333333,13.4,19.3,343,985.76,12.4,80,15.94,0.0,1012.31,229.0
2019-09-19 08:40,52.8106883333333,-97.6289233333333,15.5,20.3,351,985.63,12.3,79,15.93,0.0,1012.20,229.0
2019-09-19 08:50,52.8106783333333,-97.62888,16.0,20.9,354,985.54,12.3,79,15.94,0.0,1012.11,229.0
2019-09-19 09:00,52.8106866666667,-97.628915,15.2,18.6,351,985.78,12.2,79,15.94,0.0,1012.36,94.9
2019-09-19 09:10,52.8106966666667,-97.6287366666667,14.1,18.8,355,986.06,12.1,81,15.94,0.0,1012.65,94.9
2019-09-19 09:20,52.8106966666667,-97.6289866666667,14.1,16.9,354,986.13,12.0,81,15.94,0.1,1012.73,94.9
2019-09-19 09:30,52.8106783333333,-97.6288283333333,13.6,17.6,359,986.17,11.9,83,15.94,0.0,1012.77,94.9
2019-09-19 09:40,52.81071,-97.6288366666667,13.3,17.4,354,986.25,11.9,82,15.94,0.0,1012.85,94.9
2019-09-19 09:50,52.8107016666667,-97.6289833333333,12.4,15.4,4,986.39,11.9,83,15.93,0.0,1013.00,94.9
2019-09-19 10:00,52.8107083333333,-97.6289816666667,13.3,15.8,7,986.44,11.8,83,15.91,0.0,1013.05,258.6
2019-09-19 10:10,52.8106983333333,-97.62902,12.0,15.4,8,986.61,11.7,84,15.90,0.0,1013.24,258.6
2019-09-19 10:20,52.8107,-97.6290016666667,12.1,15.0,7,986.64,11.7,83,15.88,0.0,1013.28,258.6
2019-09-19 10:30,52.8107016666667,-97.628905,12.2,15.2,4,986.74,11.6,82,15.85,0.0,1013.39,258.6
2019-09-19 10:40,52.8106816666667,-97.628955,11.8,15.9,9,986.80,11.6,82,15.84,0.0,1013.45,258.6
2019-09-19 10:50,52.8107216666667,-97.62909,12.0,14.8,11,986.83,11.5,82,15.84,0.0,1013.49,258.6
2019-09-19 11:00,52.8107083333333,-97.6290466666667,11.3,15.0,14,986.89,11.5,82,15.85,0.0,1013.56,273.3
2019-09-19 11:10,52.810725,-97.6291183333333,11.4,14.7,12,986.92,11.5,81,15.85,0.0,1013.60,273.3
2019-09-19 11:20,52.8107066666667,-97.629065,12.2,15.1,18,986.79,11.5,81,15.85,0.0,1013.47,273.3
2019-09-19 11:30,52.8107466666667,-97.629205,11.2,14.3,19,986.89,11.4,81,15.85,0.0,1013.57,273.3
2019-09-19 11:40,52.8107716666667,-97.6292033333333,10.4,13.7,26,986.97,11.5,81,15.85,0.0,1013.66,273.3
2019-09-19 11:50,52.81081,-97.62931,9.4,12.6,34,986.96,11.4,84,15.85,0.0,1013.65,273.3
2019-09-19 12:00,52.8108333333333,-97.6293483333333,9.4,11.9,37,987.08,11.3,84,15.83,0.0,1013.78,298.0
2019-09-19 12:10,52.81083,-97.6292966666667,8.3,11.5,39,987.34,11.3,83,15.83,0.0,1014.05,298.0
2019-09-19 12:20,52.81076,-97.629175,7.8,11.2,42,987.55,11.2,83,15.85,0.0,1014.27,298.0
2019-09-19 12:30,52.8108066666667,-97.629255,6.9,8.5,40,987.73,11.3,82,15.85,0.0,1014.45,298.0
2019-09-19 12:40,52.8108316666667,-97.629285,7.0,9.3,37,987.86,11.4,81,15.87,0.0,1014.59,298.0
2019-09-19 12:50,52.8109333333333,-97.6293833333333,5.9,8.5,53,988.04,11.5,81,15.87,0.0,1014.77,298.0
2019-09-19 13:00,52.8085583333333,-97.6143,8.2,14.1,67,988.15,11.5,81,15.86,3.4,1014.89,103.6
2019-09-19 13:10,52.8053883333333,-97.6035783333333,6.3,8.5,73,988.41,11.4,80,15.82,2.6,1015.15,103.6
2019-09-19 13:20,52.80242,-97.5939533333333,6.3,7.9,77,988.49,11.4,80,15.82,2.3,1015.23,103.6
2019-09-19 13:30,52.7993966666667,-97.584365,5.4,7.1,74,988.66,11.3,79,15.83,2.4,1015.42,103.6
2019-09-19 13:40,52.7958516666667,-97.5633916666667,7.6,10.5,73,988.70,11.4,79,15.81,4.7,1015.45,103.6
2019-09-19 13:50,52.795475,-97.5616066666667,4.6,6.3,39,988.95,11.4,79,15.72,0.4,1015.72,103.6
2019-09-19 14:00,52.7954866666667,-97.5616416666667,3.6,6.4,31,989.25,11.2,80,15.71,0.0,1016.04,110.5
2019-09-19 14:10,52.7954783333333,-97.5615966666667,3.6,5.4,36,989.43,11.2,80,15.72,0.0,1016.22,110.5
2019-09-19 14:20,52.7954916666667,-97.5615983333333,3.6,5.4,29,989.59,11.2,79,15.72,0.0,1016.39,110.5
2019-09-19 14:30,52.7955483333333,-97.5616066666667,3.7,6.6,35,989.71,11.2,79,15.71,0.0,1016.50,110.5
2019-09-19 14:40,52.8152483333333,-97.54521,10.9,15.3,29,989.53,11.2,79,15.69,7.9,1016.31,110.5
2019-09-19 14:50,52.8429733333333,-97.5250133333333,14.6,16.8,31,989.40,11.1,79,15.62,10.9,1016.18,110.5
2019-09-19 15:00,52.870875,-97.5052983333333,13.5,16.4,25,989.49,11.0,79,15.59,10.9,1016.28,51.2
2019-09-19 15:10,52.89909,-97.4870183333333,13.7,18.2,10,989.65,11.0,78,15.58,10.9,1016.45,51.2
2019-09-19 15:20,52.890245,-97.4461483333333,7.7,16.3,102,989.94,11.0,78,15.55,9.4,1016.75,51.2
2019-09-19 15:30,52.8884566666667,-97.4367116666667,2.8,7.6,66,990.15,11.0,78,15.61,2.1,1016.96,51.2
2019-09-19 15:40,52.8882083333333,-97.436275,0.9,3.5,318,990.33,11.4,75,15.73,0.1,1017.13,51.2
2019-09-19 15:50,52.8882016666667,-97.4361916666667,3.6,7.1,346,990.27,11.7,75,15.63,0.0,1017.07,51.2
2019-09-19 16:00,52.8881583333333,-97.436205,3.9,6.3,344,990.34,11.6,72,15.64,0.0,1017.14,53.4
2019-09-19 16:10,52.88819,-97.4363516666667,4.0,6.9,358,990.35,11.7,73,15.68,0.0,1017.15,53.4
2019-09-19 16:20,52.8881716666667,-97.4364,3.5,4.8,25,990.27,11.7,73,15.73,0.0,1017.06,53.4
2019-09-19 16:30,52.8881783333333,-97.4365266666667,3.8,5.6,44,990.29,11.6,74,15.79,0.0,1017.09,53.4
2019-09-19 16:40,52.8882783333333,-97.4366633333333,3.3,5.2,77,990.30,11.6,74,15.85,0.0,1017.10,53.4
2019-09-19 16:50,52.89671,-97.4655016666667,5.4,10.4,303,990.30,11.8,73,15.87,7.0,1017.10,53.4
2019-09-19 17:00,52.9005783333333,-97.5147116666667,8.9,11.0,279,990.35,11.8,74,15.76,10.8,1017.15,15.1
2019-09-19 17:10,52.8978266666667,-97.5651583333333,9.0,10.4,267,990.43,11.9,74,15.84,11.0,1017.23,15.1
2019-09-19 17:20,52.91044,-97.604595,7.7,12.3,304,990.53,11.9,75,15.93,9.7,1017.33,15.1
2019-09-19 17:30,52.9354066666667,-97.63399,9.9,12.0,326,990.59,11.9,75,15.93,11.0,1017.37,15.1
2019-09-19 17:40,52.9611916666667,-97.6611333333333,10.6,12.3,329,990.58,12.0,74,15.90,11.0,1017.34,15.1
2019-09-19 17:50,52.9865483333333,-97.68887,9.9,11.9,326,990.54,11.8,74,15.91,10.9,1017.31,15.1
2019-09-19 18:00,53.0155216666667,-97.7024183333333,10.4,12.1,347,990.61,11.8,75,15.73,10.8,1017.38,320.7
2019-09-19 18:10,53.027485,-97.7090366666667,4.7,11.6,334,990.87,11.9,74,15.74,4.5,1017.65,320.7
2019-09-19 18:20,53.0273783333333,-97.7104766666667,1.4,2.6,324,990.80,12.4,73,15.66,0.3,1017.56,320.7
2019-09-19 18:30,53.02507,-97.700745,2.8,6.1,76,990.75,12.5,72,15.86,2.3,1017.50,320.7
2019-09-19 18:40,53.0253883333333,-97.6990416666667,1.4,4.7,22,990.81,12.7,72,15.94,0.4,1017.55,320.7
2019-09-19 18:50,53.0254133333333,-97.6991533333333,0.8,2.0,328,990.79,12.9,69,15.90,0.0,1017.52,320.7
2019-09-19 19:00,53.0253733333333,-97.6991283333333,0.4,1.6,320,990.90,13.2,69,16.05,0.0,1017.60,311.0
2019-09-19 19:10,53.0272066666667,-97.7047416666667,1.5,3.9,281,990.86,13.0,69,16.15,1.4,1017.57,311.0
2019-09-19 19:20,53.0311233333333,-97.714255,3.8,5.9,311,990.77,12.7,71,16.27,2.5,1017.49,311.0
2019-09-19 19:30,53.03497,-97.723685,4.9,7.0,326,990.78,12.5,73,16.53,2.5,1017.51,311.0
2019-09-19 19:40,53.03894,-97.73314,4.1,6.0,316,990.80,12.5,73,16.61,2.5,1017.54,311.0
2019-09-19 19:50,53.0552883333333,-97.7715533333333,11.0,13.7,304,990.62,12.4,74,16.34,10.2,1017.36,311.0
2019-09-19 20:00,53.07415,-97.8120333333333,10.6,12.9,305,990.59,12.4,74,16.22,11.1,1017.33,314.2
2019-09-19 20:10,53.0927233333333,-97.853155,9.7,11.5,299,990.54,12.5,74,16.23,11.1,1017.25,314.2
2019-09-19 20:20,53.1115216666667,-97.8939316666667,9.1,11.4,304,990.46,12.6,73,16.23,11.1,1017.15,314.2
2019-09-19 20:30,53.13043,-97.9346333333333,8.4,10.6,302,990.36,12.7,74,16.22,11.1,1017.04,314.2
2019-09-19 20:40,53.149395,-97.9752316666667,8.7,10.1,300,990.40,12.8,74,16.26,11.1,1017.06,314.2
2019-09-19 20:50,53.1679266666667,-98.0162366666667,9.1,10.5,295,990.46,12.8,74,16.36,11.1,1017.11,314.2
2019-09-19 21:00,53.1866883333333,-98.05712,9.0,10.3,296,990.57,13.0,74,16.43,11.1,1017.22,308.9
2019-09-19 21:10,53.2054766666667,-98.097925,8.3,10.4,294,990.46,13.1,74,16.48,11.1,1017.12,308.9
2019-09-19 21:20,53.2245933333333,-98.138305,7.1,9.1,297,990.40,13.2,74,16.52,11.1,1017.06,308.9
2019-09-19 21:30,53.2434916666667,-98.1790233333333,7.3,9.2,294,990.22,13.4,74,16.56,11.1,1016.87,308.9
2019-09-19 21:40,53.2618983333333,-98.2203916666667,7.2,9.8,291,990.20,13.5,74,16.62,11.1,1016.85,308.9
2019-09-19 21:50,53.2808616666667,-98.2610233333333,7.3,9.4,285,990.09,13.6,74,16.71,11.1,1016.74,308.9
2019-09-19 22:00,53.2997616666667,-98.301645,6.6,8.6,290,990.01,13.8,74,16.61,11.1,1016.64,307.5
2019-09-19 22:10,53.318625,-98.3425233333333,6.1,8.8,285,989.92,13.9,74,16.69,11.1,1016.53,307.5
2019-09-19 22:20,53.33752,-98.3833866666667,6.6,8.9,284,989.94,14.1,72,16.69,11.1,1016.54,307.5
2019-09-19 22:30,53.35653,-98.424065,6.2,7.8,289,989.87,14.3,68,16.81,11.1,1016.46,307.5
2019-09-19 22:40,53.3754783333333,-98.4649633333333,5.5,6.8,298,989.83,14.5,68,16.80,11.1,1016.40,307.5
2019-09-19 22:50,53.39211,-98.4644566666667,4.1,12.3,74,989.75,14.5,67,16.78,6.0,1016.31,307.5
2019-09-19 23:00,53.3915483333333,-98.464805,5.9,7.1,141,989.74,14.1,68,16.53,0.2,1016.32,309.3
2019-09-19 23:10,53.3863133333333,-98.4772183333333,6.5,11.7,159,989.57,14.2,71,16.53,3.3,1016.13,309.3
2019-09-19 23:20,53.3836783333333,-98.482805,6.6,9.5,139,989.63,14.1,73,16.58,1.5,1016.19,309.3
2019-09-19 23:30,53.3838533333333,-98.483195,7.9,9.7,140,989.57,14.0,75,16.28,0.1,1016.12,309.3
2019-09-19 23:40,53.38606,-98.4757016666667,9.3,11.8,134,989.53,14.1,76,16.08,1.8,1016.07,309.3
2019-09-19 23:50,53.3901416666667,-98.46068,10.5,12.3,124,989.38,14.0,77,16.42,3.5,1015.92,309.3
